This demonstration page uses our WeatherBlox Daily Observations layout. Learn more.

Left ArrowRight Arrow

30.21309, -93.2044

Hourly Observations for April 16, 2022

Temp ( °F °C ) Dew Point ( °F °C ) Humidity (%) Winds ( mph kmh ) Pressure ( in mb ) Visibility ( mi km ) Precip ( " mm )
12:15 am 00:15 Cloudy with Mist and Fog 73 22.7 71 21.8 95 95 SSE 10 17 29.95 1014 7 11 0.00 0.00
12:35 am 00:35 Cloudy with Mist and Fog 73 22.6 71 21.7 95 95 SSE 10 17 29.95 1014 5 8 0.00 0.00
12:55 am 00:55 Cloudy with Mist and Fog 73 22.6 71 21.7 95 95 SSE 10 17 29.95 1014 7 11 0.00 0.00
1:15 am 01:15 Cloudy with Mist and Fog 73 22.6 71 21.7 95 95 SSE 10 17 29.95 1014 7 11 0.00 0.00
1:35 am 01:35 Cloudy with Mist and Fog 73 22.6 71 21.7 95 95 SSE 9 15 29.94 1014 5 8 0.00 0.00
1:55 am 01:55 Cloudy with Mist and Fog 73 22.6 71 21.7 95 95 SSE 9 15 29.94 1014 5 8 0.00 0.00
2:15 am 02:15 Cloudy with Mist and Fog 73 22.6 71 21.6 94 94 SSE 9 15 29.93 1014 5 8 0.00 0.00
2:35 am 02:35 Cloudy with Mist and Fog 73 22.5 71 21.5 94 94 SSE 9 15 29.93 1014 5 8 0.00 0.00
2:55 am 02:55 Cloudy with Mist and Fog 73 22.5 71 21.5 94 94 SSE 8 13 29.92 1013 5 8 0.00 0.00
3:15 am 03:15 Cloudy with Mist and Fog 73 22.5 71 21.5 94 94 SSE 8 13 29.92 1013 5 8 0.00 0.00
3:35 am 03:35 Cloudy with Mist and Fog 72 22.4 71 21.4 94 94 SSE 7 11 29.93 1014 7 11 0.00 0.00
3:55 am 03:55 Cloudy with Mist and Fog 73 22.5 71 21.5 94 94 SSE 8 13 29.92 1013 7 11 0.00 0.00
4:15 am 04:15 Cloudy with Mist and Fog 72 22.4 71 21.4 94 94 SSE 8 13 29.92 1013 7 11 0.00 0.00
4:35 am 04:35 Cloudy with Mist and Fog 72 22.4 71 21.4 94 94 SSE 7 11 29.92 1013 7 11 0.00 0.00
4:55 am 04:55 Cloudy with Mist and Fog 72 22.4 71 21.4 94 94 SSE 8 13 29.91 1013 7 11 0.00 0.00
5:15 am 05:15 Cloudy with Mist and Fog 72 22.4 71 21.4 94 94 S 6 9 29.92 1013 7 11 0.00 0.00
5:35 am 05:35 Cloudy with Mist and Fog 72 22.4 71 21.4 94 94 S 6 9 29.93 1014 7 11 0.00 0.00
6:00 am 06:00 Mostly Cloudy with Mist and Fog 72 22 70 21 94 94 S 6 9 29.93 1014 7 11 0.00 0.00
6:53 am 06:53 Mostly Cloudy with Mist and Fog 72 22 70 21 94 94 S 7 11 29.94 1014 5 8 0.00 0.00
7:55 am 07:55 Mostly Cloudy with Mist and Fog 73 23 72 22 94 94 S 7 11 29.96 1015 7 11 0.00 0.00
8:55 am 08:55 Mostly Cloudy 75 24 72 22 89 89 S 12 19 29.96 1015 10 16 0.00 0.00
9:51 am 09:51 Mostly Cloudy 77 25 72 22 83 83 S 10 17 29.97 1015 10 16 0.00 0.00
10:55 am 10:55 Mostly Cloudy 79 26 72 22 79 79 SSW 13 20 29.98 1015 10 16 0.00 0.00
11:55 am 11:55 Mostly Cloudy 79 26 70 21 74 74 SSW 18 30 29.99 1016 10 16 0.00 0.00
12:53 pm 12:53 Mostly Cloudy 81 27 70 21 70 70 SW 17 28 29.97 1015 10 16 0.00 0.00
1:49 pm 13:49 Mostly Cloudy 82 28 70 21 66 66 SSW 14 22 29.97 1015 10 16 0.00 0.00
2:50 pm 14:50 Mostly Cloudy 82 28 70 21 66 66 SW 12 19 29.96 1015 10 16 0.00 0.00
3:25 pm 15:25 Mostly Cloudy 82 28 70 21 66 66 WSW 12 19 29.94 1014 10 16 0.00 0.00
3:45 pm 15:45 Mostly Cloudy 82 28 70 21 66 66 WSW 12 19 29.93 1014 10 16 0.00 0.00
4:45 pm 16:45 Mostly Cloudy 84 29 68 20 58 58 SW 10 17 29.91 1013 10 16 0.00 0.00
5:48 pm 17:48 Mostly Cloudy 82 28 70 21 66 66 SW 13 20 29.90 1013 10 16 0.00 0.00
6:48 pm 18:48 Mostly Sunny 81 27 70 21 70 70 S 10 17 29.90 1013 10 16 0.00 0.00
7:48 pm 19:48 Mostly Cloudy 75 24 70 21 83 83 S 7 11 29.91 1013 10 16 0.00 0.00
8:45 pm 20:45 Mostly Cloudy 75 24 72 22 89 89 S 7 11 29.93 1014 10 16 0.00 0.00
9:45 pm 21:45 Mostly Cloudy 73 23 70 21 89 89 S 7 11 29.94 1014 10 16 0.00 0.00
10:15 pm 22:15 Partly Cloudy 73 22.5 70 21.2 92 92 S 9 15 29.94 1014 7 11 0.00 0.00
10:35 pm 22:35 Clear 73 22.5 70 21.2 92 92 SSE 12 19 29.93 1014 7 11 0.00 0.00
10:55 pm 22:55 Clear 73 22.5 70 21.2 92 92 SSE 8 13 29.93 1014 7 11 0.00 0.00
11:15 pm 23:15 Mostly Cloudy 73 22.8 71 21.6 93 93 SSE 8 13 29.94 1014 7 11 0.00 0.00
11:35 pm 23:35 Cloudy 73 22.6 71 21.5 94 94 SSE 7 11 29.93 1014 7 11 0.00 0.00
11:55 pm 23:55 Partly Cloudy with Mist and Fog 73 22.6 71 21.5 94 94 SSE 8 13 29.93 1014 7 11 0.00 0.00

Powered by AerisWeather